Weather History for KHRO - August, 2013

Change the Weather History Date:

Sunday, August 4, 2013

  Actual Average Record
Temperature  
Mean Temperature 74 °F 79 °F  
Max Temperature 78 °F 90 °F 107 °F (1918)
Min Temperature 70 °F 68 °F 45 °F (1912)
Degree Days  
Heating Degree Days 0 0  
Month to date heating degree days 0 0  
Since 1 June heating degree days 5 6  
Since 1 July heating degree days 0 0  
Cooling Degree Days 9 14  
Month to date cooling degree days 43 56  
Year to date cooling degree days 853 874  
Since 1 June cooling degree days 707 735  
Growing Degree Days 24 (Base 50)    
Moisture  
Dew Point 70 °F    
Average Humidity 88    
Maximum Humidity 100    
Minimum Humidity 76    
Precipitation  
Precipitation 0.62 in 0.13 in 1.24 in (1998)
Month to date precipitation 2.65 0.51  
Year to date precipitation 28.02 25.89  
Snow  
Snow 0.00 in 0.00 in - ()
Month to date snowfall 0.0 0.0  
Since 1 June snowfall 0.0 0.0  
Since 1 July snowfall 0.0 0.0  
Snow Depth 0.00 in    
Sea Level Pressure  
Sea Level Pressure 30.12 in    
Wind  
Wind Speed 7 mph (ESE)    
Max Wind Speed 18 mph    
Max Gust Speed 31 mph    
Visibility 8 miles    
Events Fog , Rain , Thunderstorm    
T = Trace of Precipitation, MM = Missing Value Source: NWS Daily Summary

Daily Weather History Graph

Daily Weather History Graph

Search for Another Location

Airport or City:

Trip Planner

Search our weather history database for the weather conditions in past years. The results will help you decide how hot, cold, wet, or windy it might be!

Date:

Astronomy

Aug. 04, 2013 Rise Set
Actual Time 6:22 AM CDT 8:14 PM CDT
Civil Twilight 5:53 AM CDT 8:42 PM CDT
Nautical Twilight 5:19 AM CDT 9:16 PM CDT
Astronomical Twilight 4:43 AM CDT 9:53 PM CDT
Moon 4:24 AM CDT (8/4) 6:38 PM CDT (8/4)
Length of Visible Light 14h 48m
Length of Day
13h 52m
Waning Crescent, 4% of the Moon is Illuminated
Aug 4
Waning Crescent
Aug 6
New
Aug 14
First Quarter
Aug 20
Full
Aug 28
Last Quarter

Hourly Weather History & Observations

Time (CDT) Temp. Dew Point Humidity Pressure Visibility Wind Dir Wind Speed Gust Speed Precip Events Conditions
12:53 AM 72.0 °F 71.1 °F 97% 30.09 in 10.0 mi ESE 4.6 mph - N/A   Partly Cloudy
1:53 AM 72.0 °F 70.0 °F 93% 30.07 in 10.0 mi SE 4.6 mph - N/A   Scattered Clouds
2:53 AM 71.1 °F 70.0 °F 96% 30.05 in 10.0 mi SE 4.6 mph - N/A   Mostly Cloudy
3:53 AM 72.0 °F 70.0 °F 93% 30.07 in 10.0 mi North - - N/A   Overcast
4:53 AM 72.0 °F 71.1 °F 97% 30.07 in 10.0 mi Calm Calm - N/A   Overcast
5:53 AM 71.1 °F 71.1 °F 100% 30.08 in 9.0 mi SE 4.6 mph - N/A   Overcast
6:14 AM 71.6 °F 69.8 °F 94% 30.13 in 9.0 mi SE 3.5 mph - N/A   Overcast
6:53 AM 71.1 °F 70.0 °F 96% 30.09 in 7.0 mi ESE 3.5 mph - N/A   Overcast
7:39 AM 71.6 °F 69.8 °F 94% 30.15 in 10.0 mi South 4.6 mph - N/A   Scattered Clouds
7:53 AM 72.0 °F 71.1 °F 97% 30.11 in 10.0 mi SE 5.8 mph - N/A   Scattered Clouds
8:09 AM 71.6 °F 71.6 °F 100% 30.16 in 10.0 mi ESE 6.9 mph - N/A   Mostly Cloudy
8:53 AM 73.0 °F 71.1 °F 93% 30.12 in 10.0 mi SE 5.8 mph - N/A   Mostly Cloudy
9:05 AM 73.4 °F 71.6 °F 94% 30.17 in 10.0 mi SE 4.6 mph - N/A   Scattered Clouds
9:53 AM 75.0 °F 70.0 °F 84% 30.12 in 10.0 mi SE 6.9 mph - N/A   Scattered Clouds
10:53 AM 77.0 °F 70.0 °F 79% 30.12 in 10.0 mi SE 8.1 mph - N/A   Mostly Cloudy
11:12 AM 78.8 °F 69.8 °F 74% 30.16 in 10.0 mi SE 6.9 mph - N/A Thunderstorm Thunderstorm
11:27 AM 77.0 °F 69.8 °F 78% 30.16 in 10.0 mi SE 6.9 mph - N/A   Overcast
11:53 AM 77.0 °F 69.1 °F 76% 30.12 in 10.0 mi SSE 5.8 mph - N/A   Overcast
12:13 PM 75.2 °F 69.8 °F 83% 30.16 in 10.0 mi SSE 4.6 mph - 0.00 in Rain , Thunderstorm Light Rain
12:30 PM 73.4 °F 71.6 °F 94% 30.17 in 2.5 mi North 5.8 mph - 0.04 in Rain , Thunderstorm Heavy Thunderstorms and Rain
12:42 PM 73.4 °F 71.6 °F 94% 30.16 in 6.0 mi ENE 5.8 mph - 0.05 in Rain , Thunderstorm Light Thunderstorms and Rain
12:53 PM 72.0 °F 70.0 °F 93% 30.14 in 5.0 mi Variable 6.9 mph - 0.06 in Rain , Thunderstorm Light Thunderstorms and Rain
12:59 PM 71.6 °F 69.8 °F 94% 30.18 in 1.2 mi North 16.1 mph 19.6 mph 0.17 in Rain , Thunderstorm Thunderstorms and Rain
1:02 PM 69.8 °F 69.8 °F 100% 30.18 in 0.5 mi NNE 12.7 mph 19.6 mph 0.32 in Fog , Rain , Thunderstorm Heavy Thunderstorms and Rain
1:11 PM 69.8 °F 69.8 °F 100% 30.17 in 1.0 mi North 6.9 mph 21.9 mph 0.38 in Rain , Thunderstorm Thunderstorms and Rain
1:16 PM 71.6 °F 69.8 °F 94% 30.17 in 3.0 mi North 5.8 mph 16.1 mph 0.39 in Rain , Thunderstorm Light Thunderstorms and Rain
1:25 PM 71.6 °F 69.8 °F 94% 30.17 in 7.0 mi North 5.8 mph - 0.39 in Rain , Thunderstorm Light Thunderstorms and Rain
1:37 PM 71.6 °F 69.8 °F 94% 30.18 in 5.0 mi North 5.8 mph - 0.40 in Rain Light Rain
1:53 PM 70.0 °F 69.1 °F 97% 30.14 in 2.0 mi North 6.9 mph - 0.46 in Rain Heavy Rain
2:02 PM 69.8 °F 69.8 °F 100% 30.17 in 4.0 mi North 5.8 mph - 0.01 in Rain Rain
2:53 PM 71.1 °F 70.0 °F 96% 30.12 in 6.0 mi NNE 3.5 mph - 0.07 in Rain Light Rain
3:53 PM 72.0 °F 69.1 °F 91% 30.09 in 10.0 mi SE 3.5 mph - 0.02 in Rain Light Rain
4:53 PM 72.0 °F 70.0 °F 93% 30.08 in 10.0 mi SE 3.5 mph - 0.01 in   Partly Cloudy
5:35 PM 73.4 °F 69.8 °F 88% 30.11 in 10.0 mi SSE 5.8 mph - N/A   Mostly Cloudy
5:53 PM 73.0 °F 70.0 °F 90% 30.07 in 10.0 mi SSE 8.1 mph - N/A   Mostly Cloudy
6:06 PM 73.4 °F 69.8 °F 88% 30.10 in 10.0 mi SSE 10.4 mph - N/A   Mostly Cloudy
6:13 PM 71.6 °F 69.8 °F 94% 30.10 in 10.0 mi SSE 10.4 mph - N/A   Scattered Clouds
6:53 PM 72.0 °F 69.1 °F 91% 30.06 in 10.0 mi SSE 10.4 mph - N/A   Clear
7:53 PM 72.0 °F 70.0 °F 93% 30.05 in 10.0 mi SSE 13.8 mph - 0.00 in Rain Light Rain
8:53 PM 71.1 °F 70.0 °F 96% 30.05 in 10.0 mi SSE 6.9 mph - 0.00 in   Overcast
9:53 PM 71.1 °F 69.1 °F 93% 30.06 in 10.0 mi SE 9.2 mph - 0.00 in   Overcast
10:53 PM 71.1 °F 70.0 °F 96% 30.06 in 8.0 mi SE 8.1 mph - N/A   Scattered Clouds
11:14 PM 71.6 °F 69.8 °F 94% 30.09 in 8.0 mi SE 9.2 mph - N/A   Scattered Clouds
11:53 PM 71.1 °F 70.0 °F 96% 30.05 in 9.0 mi SE 8.1 mph - N/A   Mostly Cloudy